sat.trackr.live / text

‹ back to catalog

STARLINK-36653

NORAD 67842 · 2026-033X

PAYLOAD ACTIVE UNKNOWN

§ Identity

Operator
Country
US
Launch date
2026-02-16
Launch site
AFETR
Launch vehicle
Mass (kg)
RCS (m²)

Purposes: comms

External: N2YO · Heavens-Above · Gunter

§ Orbital elements

Epoch: 2026-09-19T22:36:25.693056Z

Period
94.27 min
Inclination
42.9999°
Eccentricity
0.0001861
Mean motion
15.27588138 rev/d
Perigee alt
481.7 km
Apogee alt
484.3 km
Semi-major
6,861.2 km
B*
5.7587e-4
RAAN
249.9074°
Arg perigee
295.8014°
Mean anomaly
64.2645°
Rev number
3,438

§ Raw data

STARLINK-366531 67842U 26033X   26262.94196404  .00015622  00000+0  57587-3 0  99962 67842  42.9999 249.9074 0001861 295.8014  64.2645 15.27588138 34384

JSON: /api/v1/satellites/67842 · /tle

For live sub-satellite position, see the globe view (requires WebGL).

§ Visibility from observer

Set your observer location to see the next 7 days of passes ≥ 10°. The values pass through the URL so the page stays shareable.

No JS? Fill the form by hand. The geolocation button needs JavaScript.